This demonstration page uses our WeatherBlox Daily Observations layout. Learn more.

Left ArrowRight Arrow

41.86663, -103.66717

Hourly Observations for June 28, 2021

Temp ( °F °C ) Dew Point ( °F °C ) Humidity (%) Winds ( mph kmh ) Pressure ( in mb ) Visibility ( mi km ) Precip ( " mm )
12:53 am 00:53 Clear 57 13.9 53 11.7 87 87 NW 6 9 30.08 1019 10 16 N/A
1:53 am 01:53 Mostly Clear 56 13.3 52 11.1 87 87 WNW 7 11 30.07 1018 10 16 N/A
2:53 am 02:53 Mostly Cloudy 55 12.8 51 10.6 87 87 NW 5 7 30.10 1019 10 16 N/A
3:53 am 03:53 Mostly Cloudy 55 12.8 51 10.6 87 87 NW 8 13 30.11 1020 10 16 N/A
4:53 am 04:53 Clear 55 12.8 51 10.6 87 87 WNW 6 9 30.12 1020 10 16 N/A
5:53 am 05:53 Sunny 54 12.2 51 10.6 90 90 WNW 6 9 30.11 1020 10 16 N/A
6:53 am 06:53 Sunny 56 13.3 52 11.1 87 87 NW 5 7 30.11 1020 10 16 N/A
7:53 am 07:53 Sunny 61 16.1 53 11.7 75 75 NW 15 24 30.13 1020 10 16 N/A
8:53 am 08:53 Cloudy with Light Rain 60 15.6 54 12.2 80 80 NW 7 11 30.14 1021 7 11 0.00 0.00
9:53 am 09:53 Cloudy 66 18.9 54 12.2 65 65 WNW 6 9 30.13 1020 10 16 0.01 0.25
10:53 am 10:53 Mostly Cloudy 69 20.6 52 11.1 55 55 W 6 9 30.13 1020 10 16 N/A
11:53 am 11:53 Sunny 75 23.9 51 10.6 43 43 VRB 6 9 30.10 1019 10 16 N/A
12:53 pm 12:53 Mostly Cloudy 73 22.8 50 10 44 44 NE 10 17 30.11 1020 10 16 0.00 0.00
1:53 pm 13:53 Mostly Sunny 77 25 49 9.4 37 37 undefined N/A 30.09 1019 10 16 N/A
2:53 pm 14:53 Cloudy with Rain 69 20.6 56 13.3 63 63 N N/A 30.11 1020 5 8 0.03 0.76
3:53 pm 15:53 Mostly Cloudy with Light Rain 76 24.4 53 11.7 45 45 ENE 10 17 30.10 1019 10 16 0.01 0.25
4:53 pm 16:53 Sunny 75 23.9 51 10.6 43 43 E 17 28 30.09 1019 10 16 0.00 0.00
5:53 pm 17:53 Mostly Cloudy 72 22.2 48 8.9 43 43 ESE 6 9 30.11 1020 10 16 N/A
6:53 pm 18:53 Partly Cloudy 69 20.6 51 10.6 53 53 ENE 12 19 30.12 1020 10 16 N/A
7:53 pm 19:53 Sunny 70 21.1 49 9.4 47 47 ESE 6 9 30.11 1020 10 16 N/A
8:53 pm 20:53 Clear 65 18.3 54 12.2 68 68 E 3 6 30.13 1020 10 16 N/A
9:53 pm 21:53 Clear 61 16.1 53 11.7 75 75 ESE 5 7 30.16 1021 10 16 N/A
10:53 pm 22:53 Clear 59 15 52 11.1 78 78 E 3 6 30.16 1021 10 16 N/A
11:53 pm 23:53 Clear 56 13.3 51 10.6 84 84 N N/A 30.15 1021 10 16 N/A

Powered by AerisWeather